Voltar ao catálogo

BOTSAT-1

AtivoComunicaçõesSSO
NORAD 63216·PAYLOAD·🇧🇼 Botswana

Lançado Mar 15, 2025 de Vandenberg Space Force Base

Loading…

Próximas Passagens (próximas 24 horas)

TLE

AtualizadoSource: Space-Track

Época: Sep 14, 2026, 10:17 UTC

1 63216U 25052G   26257.42853098  .00006926  00000-0  25267-3 0  9991
2 63216  97.3749 150.4180 0003222 131.7374 228.4141 15.28460796 83587

Acompanhe BOTSAT-1 em tempo real com AllMySat

Download on the App Store